• MPC Preparation (Info)

  • MPEC 2009-S26 : 2009 SP

    The following Minor Planet Electronic Circular may be linked-to from your own Web pages, but must not otherwise be redistributed electronically.

    A form allowing access to any MPEC is at the bottom of this page.


    Read MPEC 2009-S25 Read MPEC 2009-S27


    M.P.E.C. 2009-S26                                Issued 2009 Sept. 17, 23:26 UT
    
         The Minor Planet Electronic Circulars contain information on unusual
             minor planets and routine data on comets.  They are published
       on behalf of Commission 20 of the International Astronomical Union by the
              Minor Planet Center, Smithsonian Astrophysical Observatory,
                              Cambridge, MA 02138, U.S.A.
    
                 Prepared using the Tamkin Foundation Computer Network
    
                                  MPC@CFA.HARVARD.EDU
              URL http://www.cfa.harvard.edu/iau/mpc.html  ISSN 1523-6714
    
                                        2009 SP
    
    Observations:
         K09S00P* C2009 09 17.22990 23 08 44.34 +02 27 16.5          19.7 V ES026G96
         K09S00P  C2009 09 17.23653 23 08 43.98 +02 26 59.8          19.6 V ES026G96
         K09S00P  C2009 09 17.24296 23 08 43.62 +02 26 43.9          19.6 V ES026G96
         K09S00P  C2009 09 17.24938 23 08 43.29 +02 26 28.1          19.7 V ES026G96
         K09S00P  C2009 09 17.33153 23 08 38.79 +02 23 03.5          19.5 V ES026G96
         K09S00P  C2009 09 17.33759 23 08 38.47 +02 22 48.2          19.4 V ES026G96
         K09S00P  C2009 09 17.34365 23 08 38.14 +02 22 32.9          19.5 V ES026G96
         K09S00P  C2009 09 17.34978 23 08 37.82 +02 22 17.8          19.6 V ES026G96
         K09S00P 6C2009 09 17.50178123 08 30.19 +02 16 00.4          19.3 R ES026F65
         K09S00P 6C2009 09 17.50280123 08 30.15 +02 15 58.2          19.3 R ES026F65
         K09S00P 6C2009 09 17.50374123 08 30.09 +02 15 55.6          19.4 R ES026F65
         K09S00P  C2009 09 17.89340 23 08 11.85 +01 59 28.7                 ES026J95
         K09S00P  C2009 09 17.89769 23 08 11.65 +01 59 17.8                 ES026J95
         K09S00P  C2009 09 17.90197 23 08 11.40 +01 59 07.0          19.3 R ES026J95
    
    Observer details:
    F65 Haleakala-Faulkes Telescope North.  Observer R. Miles.  2.0-m f/10.0
        Ritchey-Chretien + CCD.
    G96 Mt. Lemmon Survey.  Observer A. Boattini.  Measurers E. C. Beshore,
        A. Boattini, G. J. Garradd, A. R. Gibbs, A. D. Grauer, R. E. Hill,
        R. A. Kowalski, S. M. Larson, R. H. McNaught.  1.5-m reflector + CCD.
    J95 Great Shefford.  Observer P. Birtwhistle.  0.40-m f/6.0 Schmidt-Cassegrain
        + CCD.
    
    Orbital elements:
    2009 SP                                                  Earth MOID = 0.3384 AU
    Epoch 2009 June 18.0 TT = JDT 2455000.5                 MPC
    M 299.88256              (2000.0)            P               Q
    n   0.30803047     Peri.  256.25870     +0.26424627     -0.96437267
    a   2.1714022      Node   178.26051     +0.96420119     +0.26445437
    e   0.4850782      Incl.   24.56625     -0.02213512     +0.00701751
    P   3.20           H   19.4           G   0.15           U   9
    Residuals in seconds of arc
    090917 G96  0.1+  0.0     090917 G96  0.1-  0.1+    090917 F65  0.1+  0.1-
    090917 G96  0.1+  0.2-    090917 G96  0.1-  0.1-    090917 J95  0.1-  0.0
    090917 G96  0.1-  0.1-    090917 G96  0.0   0.1+    090917 J95  0.2+  0.0
    090917 G96  0.2+  0.1+    090917 F65  0.0   0.2-    090917 J95  0.1-  0.0
    090917 G96  0.2-  0.2+    090917 F65  0.2+  0.2+
    
    Ephemeris:
    2009 SP                  a,e,i = 2.17, 0.49, 25                  q = 1.1181
    Date    TT    R. A. (2000) Decl.     Delta      r     Elong.  Phase     V
    2009 09 16    23 09.73   +03 17.7    0.569    1.571   171.3     5.5    19.6
    2009 09 26    23 01.66   -04 08.6    0.521    1.507   162.0    11.9    19.6
    2009 10 06    22 55.16   -12 25.4    0.499    1.444   147.2    22.0    19.7
    2009 10 16    22 52.39   -20 27.4    0.498    1.384   132.7    32.0    19.9
    2009 10 26    22 55.08   -27 22.6    0.514    1.327   119.8    40.5    20.2
    2009 11 05    23 04.11   -32 50.7    0.537    1.274   109.2    47.3    20.4
    2009 11 15    23 19.46   -36 53.6    0.564    1.226   100.7    52.4    20.5
    2009 11 25    23 40.77   -39 39.7    0.588    1.186    94.2    56.1    20.7
    2009 12 05    00 07.31   -41 18.2    0.608    1.154    89.5    58.7    20.7
    2009 12 15    00 38.18   -41 53.4    0.621    1.131    86.5    60.3    20.8
    2009 12 25    01 12.58   -41 25.4    0.629    1.120    84.9    61.1    20.8
    2010 01 04    01 49.62   -39 52.6    0.631    1.119    84.8    61.0    20.8
    2010 01 14    02 28.43   -37 10.1    0.630    1.131    86.0    60.2    20.8
    2010 01 24    03 08.32   -33 14.8    0.630    1.152    88.3    58.6    20.8
    2010 02 03    03 48.53   -28 10.1    0.635    1.184    91.3    56.3    20.8
    2010 02 13    04 28.36   -22 08.3    0.650    1.224    94.6    53.5    20.9
    2010 02 23    05 07.27   -15 35.3    0.680    1.272    97.5    50.5    21.0
    2010 03 05    05 44.76   -09 05.6    0.728    1.325    99.6    47.6    21.1
    2010 03 15    06 20.46   -03 10.6    0.797    1.382   100.3    45.1    21.3
    2010 03 25    06 54.23   +01 48.5    0.887    1.442    99.7    43.0    21.6
    2010 04 04    07 25.95   +05 44.0    0.994    1.504    98.0    41.2    21.9
    
    Timothy B. Spahr             (C) Copyright 2009 MPC           M.P.E.C. 2009-S26
    

    Read MPEC 2009-S25 Read MPEC 2009-S27


    MPEC number:

    Enter an MPEC number in one of the following forms:

    • 1997-B01 (the full form)
    • J97B01 (the packed version of the full form)
    • B01 (the abbreviated form)